Flag for India Weather past 2 weeks in Chennai, Tamil Nadu, India

Now
84 °F

Clear.


Feels Like: 94 °F
Forecast: 82 / 96 °F
Wind: 7 mph from South

Location: Madras / Minambakkam


UV Index: 10 (Very high)

Visibility: 4 mi


Pressure: 29.80 "Hg

Humidity: 79%

Dew point: 77 °F

Location of ChennaiLocation

Historic Weather in Chennai

°F

Chennai temperature yesterday

Maximum temperature yesterday: 93 °F (at 10:40 AM)
Minimum temperature yesterday: 77 °F (at 5:40 AM)
Average temperature yesterday: 86 °F

Past Weeks' High & Low Weather Summary

 TemperatureHumidityPressure
High99 °F (Apr 11, 11:40 AM)94% (Apr 22, 6:40 AM)29.92 "Hg (Apr 22, 6:40 AM)
Low77 °F (Apr 20, 4:40 AM)33% (Apr 11, 11:40 AM)29.65 "Hg (Apr 17, 4:40 PM)
Average86 °F68%29.80 "Hg
* Reported Apr 9 8:40 PM — Apr 24 8:40 PM, Chennai, Weather by CustomWeather, © 2014

Note: Actual official high and low records may vary slightly from our data, if they occured in-between our weather recording intervals... More about our weather records

Advertising

Historic Weather Conditions — Data for Previous 24 hours

 ConditionsComfort  
Time TempWeatherWind HumidityBarometerVisibility
8:40 PM
Apr 24
86 °FClear.7 mph75%29.77 "Hg4 mi
7:40 PM86 °FClear.8 mph75%29.74 "Hg4 mi
6:40 PM88 °FPassing clouds.14 mph70%29.71 "Hg4 mi
5:40 PM90 °FPassing clouds.14 mph59%29.68 "Hg4 mi
4:40 PM93 °FPassing clouds.9 mph49%29.68 "Hg5 mi
3:40 PM95 °FPassing clouds.9 mph47%29.68 "Hg5 mi
2:40 PM95 °FPassing clouds.14 mph50%29.71 "Hg5 mi
1:40 PM97 °FPassing clouds.9 mph47%29.74 "Hg5 mi
12:40 PM97 °FScattered clouds.14 mph50%29.77 "Hg5 mi
11:40 AM95 °FScattered clouds.3 mph47%29.80 "Hg5 mi
10:40 AM93 °FScattered clouds.6 mph53%29.83 "Hg5 mi
9:40 AM91 °FScattered clouds.7 mph59%29.83 "Hg4 mi
8:40 AM88 °FScattered clouds.8 mph70%29.83 "Hg4 mi
7:40 AM84 °FHaze.8 mph79%29.80 "Hg2 mi
6:40 AM81 °FHaze.6 mph89%29.80 "Hg2 mi
5:40 AM81 °FPassing clouds.5 mph89%29.77 "Hg2 mi
4:40 AM81 °FPassing clouds.3 mph89%29.74 "Hg3 mi
3:40 AM81 °FPassing clouds.No wind89%29.74 "Hg4 mi
2:40 AM81 °FPassing clouds.5 mph89%29.74 "Hg4 mi
1:40 AM81 °FPassing clouds.2 mph84%29.77 "Hg4 mi
12:40 AM82 °FPassing clouds.2 mph79%29.77 "Hg4 mi
11:40 PM
Apr 23
84 °FPassing clouds.5 mph79%29.80 "Hg4 mi
10:40 PM84 °FPassing clouds.6 mph79%29.83 "Hg4 mi
Weather by CustomWeather, © 2014

See weather overview